Location: Unspecified
(0.0000°N, 0.0000°E)
Time: 03:26:24
(UTC+00:00)

ISS - Visible Passes

Search period start: 28 September 2016 00:00
Search period end: 08 October 2016 00:00
Orbit: 400 x 410 km, 51.6° (Epoch: 28 September)

Date Brightness Start Highest point End Pass type
(mag) Time Alt. Az. Time Alt. Az. Time Alt. Az.
28 Sep -3.4 05:09:56 10° NW 05:13:12 70° SW 05:16:30 10° SSE visible
29 Sep -2.0 04:20:42 34° NNE 04:21:12 37° NE 04:24:17 10° SE visible
30 Sep -1.6 05:04:44 16° WSW 05:05:28 17° SW 05:07:42 10° S visible
01 Oct -0.8 04:15:50 15° SSE 04:15:50 15° SSE 04:16:36 10° SSE visible
